#timestamp,LO_Frequency,Hit 
1502100015.3,286046921.9,N
1502100035.2,286046921.7,N
1502100055.9,286046921.5,N
1502100075.7,286046921.6,N
1502100095.6,286046921.3,N
1502100115.4,286046924.1,N
1502100135.2,286046925.9,N
1502100155.0,286046924.4,N
1502100156.0,286046924.4,N
1502100175.8,286046923.9,N
1502100195.6,286046925.4,N
1502100215.4,286046925.8,N
1502100235.3,286046926.0,N
1502100255.1,286046923.9,N
1502100275.8,286046921.7,N
1502100295.7,286046922.5,N
1502100315.5,286046919.7,N
1502100335.3,286046921.6,N
1502100355.2,286046924.0,N
1502100375.9,286046922.5,N
1502100395.7,286046923.6,N
1502100415.6,286046921.5,N
1502100435.4,286046923.7,N
1502100455.2,286046921.3,N
1502100475.0,286046922.3,N
1502100476.0,286046922.3,N
1502100495.8,286046926.0,N
1502100515.6,286046923.9,N
1502100535.4,286046923.9,N
1502100555.3,286046923.8,N
1502100575.1,286046922.7,N
1502100595.8,286046922.0,N
1502100615.7,286046922.6,N
1502100635.5,286046922.0,N
1502100655.3,286046922.8,N
1502100675.2,286046920.2,N
1502100695.9,286046922.4,N
1502100715.7,286046921.2,N
1502100735.6,286046920.0,N
1502100755.4,286046920.2,N
1502100775.2,286046920.7,N
1502100795.1,286046920.0,N
1502100796.0,286046920.0,N
1502100815.8,286046918.3,N
1502100835.6,286046920.0,N
1502100855.4,286046920.2,N
1502100875.3,286046922.6,N
1502100895.1,286046918.6,N
1502100915.8,286046921.1,N
1502100935.7,286046919.7,N
1502100955.5,286046920.8,N
1502100975.3,286046918.6,N
1502100995.2,286046918.3,N
1502101015.9,286046918.8,N
1502101035.7,286046918.8,N
1502101055.6,286046919.1,N
1502101075.4,286046919.2,N
1502101095.2,286046918.4,N
1502101115.0,286046920.9,N
1502101115.9,286046920.9,N
1502101135.8,286046918.3,N
1502101155.6,286046918.7,N
1502101175.4,286046918.7,N
1502101195.3,286046922.8,N
1502101215.1,286046922.4,N
1502101235.8,286046922.8,N
1502101255.7,286046920.4,N
1502101275.5,286046921.0,N
1502101295.3,286046921.2,N
1502101315.2,286046920.2,N
1502101335.9,286046922.7,N
1502101355.7,286046918.6,N
1502101375.6,286046918.2,N
1502101395.4,286046919.3,N
1502101415.2,286046920.7,N
1502101435.0,286046919.4,N
1502101435.9,286046919.4,N
1502101455.8,286046918.7,N
1502101475.6,286046918.7,N
1502101495.4,286046917.2,N
1502101515.3,286046916.6,N
1502101535.1,286046918.8,N
1502101555.8,286046918.2,N
1502101575.7,286046918.1,N
1502101595.5,286046919.5,N
1502101615.3,286046918.2,N
1502101635.2,286046919.5,N
1502101655.9,286046918.1,N
1502101675.7,286046919.4,N
1502101695.6,286046918.3,N
1502101715.4,286046918.5,N
1502101735.2,286046918.4,N
1502101755.0,286046918.7,N
1502101756.0,286046918.7,N
1502101775.8,286046917.5,N
1502101795.6,286046918.1,N
1502101815.4,286046921.1,N
1502101835.3,286046922.0,N
1502101855.1,286046919.9,N
1502101875.8,286046922.8,N
1502101895.7,286046922.8,N
1502101915.5,286046924.3,N
1502101935.3,286046919.7,N
1502101955.2,286046921.4,N
1502101975.9,286046922.0,N
1502101995.7,286046922.4,N
1502102015.6,286046921.5,N
1502102035.4,286046922.8,N
1502102055.2,286046920.1,N
1502102075.0,286046920.3,N
1502102076.0,286046920.3,N
1502102095.8,286046920.7,N
1502102115.6,286046920.4,N
1502102135.4,286046918.7,N
1502102155.3,286046919.1,N
1502102175.1,286046918.9,N
1502102195.8,286046917.0,N
1502102215.7,286046918.7,N
1502102235.5,286046919.1,N
1502102255.3,286046918.4,N
1502102275.2,286046918.8,N
1502102295.9,286046918.8,N
1502102315.7,286046919.1,N
1502102335.6,286046918.9,N
1502102355.4,286046921.0,N
1502102375.2,286046918.1,N
1502102395.1,286046920.6,N
1502102396.0,286046920.6,N
1502102415.8,286046918.2,N
1502102435.6,286046920.7,N
1502102455.4,286046921.2,N
1502102475.3,286046920.3,N
1502102495.1,286046920.5,N
1502102515.8,286046920.0,N
1502102535.7,286046919.8,N
1502102555.5,286046920.9,N
1502102575.3,286046920.5,N
1502102595.2,286046919.4,N
1502102615.9,286046918.7,N
1502102635.7,286046921.0,N
1502102655.6,286046920.9,N
1502102675.4,286046919.3,N
1502102695.2,286046916.7,N
1502102715.0,286046918.7,N
1502102715.9,286046918.7,N
1502102735.8,286046917.1,N
1502102755.6,286046915.3,N
1502102775.4,286046917.2,N
1502102795.3,286046919.0,N
1502102815.1,286046921.0,N
1502102835.8,286046919.3,N
1502102855.7,286046921.1,N
1502102875.5,286046918.8,N
1502102895.3,286046919.2,N
1502102915.2,286046919.0,N
1502102935.9,286046920.7,N
1502102955.7,286046920.5,N
1502102975.6,286046920.8,N
1502102995.4,286046920.3,N
1502103015.2,286046918.6,N
1502103035.0,286046920.8,N
1502103035.9,286046920.8,N
1502103055.8,286046916.6,N
1502103075.6,286046918.3,N
1502103095.4,286046916.6,N
1502103115.3,286046919.6,N
1502103135.1,286046919.4,N
1502103155.8,286046917.1,N
1502103175.7,286046920.7,N
1502103195.5,286046920.6,N
1502103215.3,286046920.6,N
1502103235.2,286046918.7,N
1502103255.9,286046919.6,N
1502103275.7,286046917.2,N
1502103295.5,286046920.8,N
1502103315.4,286046919.1,N
1502103335.2,286046919.2,N
1502103355.0,286046917.2,N
1502103355.9,286046917.2,N
1502103375.8,286046919.6,N
1502103395.6,286046917.4,N
1502103415.4,286046919.0,N
1502103435.3,286046918.1,N
1502103455.1,286046919.0,N
1502103456.0,286046919.0,N
1502103475.8,286046919.0,N
1502103495.7,286046920.1,N
1502103515.5,286046922.7,N
1502103535.3,286046918.2,N
1502103555.2,286046919.8,N
1502103575.9,286046922.6,N
1502103595.7,286046920.0,N
